• In Czech Republic
  • List of Countries
  • For 7 days
  • Water Temperature
  • Satellite Maps
  • Weather Map
  • Weather Widgets
  • user-avatar
    Login

    Hourly Weather Bojsi

    Today, 23 September, Sunday

    Time Temperature Precipitation Wind Pressure Humidity
    00:00 +17°C° 0 mm 2 mps 685 mmHg 45%
    01:00 +17°C° 0 mm 2 mps 685 mmHg 47%
    02:00 +16°C° 0 mm 2 mps 685 mmHg 50%
    03:00 +16°C° 0 mm 2 mps 685 mmHg 53%
    04:00 +16°C° 0 mm 2 mps 685 mmHg 56%
    05:00 +16°C° 0 mm 2 mps 686 mmHg 57%
    06:00 +16°C° 0 mm 2 mps 686 mmHg 58%
    07:00 +16°C° 0 mm 3 mps 686 mmHg 60%
    08:00 +18°C° 0 mm 3 mps 686 mmHg 53%
    09:00 +19°C° 0 mm 4 mps 686 mmHg 47%
    10:00 +20°C° 0 mm 4 mps 687 mmHg 40%
    11:00 +21°C° 0 mm 5 mps 687 mmHg 35%
    12:00 +21°C° 0 mm 5 mps 687 mmHg 30%
    13:00 +22°C° 0 mm 6 mps 686 mmHg 25%
    14:00 +22°C° 0 mm 5 mps 686 mmHg 23%
    15:00 +21°C° 0 mm 5 mps 686 mmHg 20%
    16:00 +21°C° 0 mm 5 mps 686 mmHg 18%
    17:00 +19°C° 0 mm 4 mps 686 mmHg 21%
    18:00 +16°C° 0 mm 3 mps 686 mmHg 25%
    19:00 +14°C° 0 mm 2 mps 686 mmHg 28%
    20:00 +13°C° 0 mm 2 mps 686 mmHg 29%
    21:00 +13°C° 0 mm 2 mps 686 mmHg 31%
    22:00 +12°C° 0 mm 2 mps 687 mmHg 33%
    23:00 +10°C° 0 mm 2 mps 687 mmHg 35%

    Tomorrow, 24 September, Monday

    Time Temperature Precipitation Wind Pressure Humidity
    00:00 +10°C° 0 mm 2 mps 687 mmHg 37%
    01:00 +9°C° 0 mm 2 mps 687 mmHg 40%
    02:00 +8°C° 0 mm 2 mps 687 mmHg 42%
    03:00 +9°C° 0 mm 1 mps 687 mmHg 44%
    04:00 +8°C° 0 mm 1 mps 687 mmHg 47%
    05:00 +10°C° 0 mm 1 mps 687 mmHg 44%
    06:00 +11°C° 0 mm 1 mps 688 mmHg 42%
    07:00 +12°C° 0 mm 1 mps 688 mmHg 39%
    08:00 +14°C° 0 mm 2 mps 689 mmHg 34%
    09:00 +16°C° 0 mm 3 mps 689 mmHg 30%
    10:00 +18°C° 0 mm 3 mps 689 mmHg 25%
    11:00 +19°C° 0 mm 4 mps 689 mmHg 23%
    12:00 +20°C° 0 mm 4 mps 689 mmHg 21%
    13:00 +21°C° 0 mm 4 mps 689 mmHg 19%
    14:00 +21°C° 0 mm 4 mps 689 mmHg 19%
    15:00 +21°C° 0 mm 5 mps 688 mmHg 20%
    16:00 +21°C° 0 mm 5 mps 688 mmHg 20%
    17:00 +19°C° 0 mm 4 mps 688 mmHg 24%
    18:00 +17°C° 0 mm 3 mps 689 mmHg 28%
    19:00 +15°C° 0 mm 2 mps 689 mmHg 31%
    20:00 +14°C° 0 mm 2 mps 689 mmHg 33%
    21:00 +13°C° 0 mm 2 mps 689 mmHg 35%
    22:00 +12°C° 0 mm 3 mps 690 mmHg 37%
    23:00 +12°C° 0 mm 2 mps 690 mmHg 39%

    Day after tomorrow, 25 September, Tuesday

    Time Temperature Precipitation Wind Pressure Humidity
    00:00 +10°C° 0 mm 2 mps 690 mmHg 42%
    01:00 +10°C° 0 mm 2 mps 690 mmHg 44%
    02:00 +9°C° 0 mm 2 mps 690 mmHg 46%
    03:00 +9°C° 0 mm 2 mps 690 mmHg 48%
    04:00 +8°C° 0 mm 2 mps 690 mmHg 50%
    05:00 +10°C° 0 mm 1 mps 690 mmHg 47%
    06:00 +11°C° 0 mm 1 mps 691 mmHg 43%
    07:00 +13°C° 0 mm 1 mps 692 mmHg 40%
    08:00 +15°C° 0 mm 1 mps 692 mmHg 36%
    09:00 +18°C° 0 mm 1 mps 692 mmHg 31%
    10:00 +20°C° 0 mm 1 mps 692 mmHg 27%
    11:00 +21°C° 0 mm 1 mps 692 mmHg 25%
    12:00 +21°C° 0 mm 2 mps 692 mmHg 23%
    13:00 +23°C° 0 mm 2 mps 691 mmHg 21%
    14:00 +23°C° 0 mm 2 mps 691 mmHg 21%
    15:00 +23°C° 0 mm 2 mps 691 mmHg 20%
    16:00 +23°C° 0 mm 2 mps 691 mmHg 20%
    17:00 +20°C° 0 mm 2 mps 690 mmHg 25%
    18:00 +18°C° 0 mm 1 mps 690 mmHg 30%
    19:00 +14°C° 0 mm 1 mps 690 mmHg 35%
    20:00 +14°C° 0 mm 1 mps 690 mmHg 35%
    21:00 +13°C° 0 mm 1 mps 691 mmHg 35%
    22:00 +13°C° 0 mm 1 mps 691 mmHg 35%
    23:00 +13°C° 0 mm 1 mps 691 mmHg 36%

    26 September, Wednesday

    Time Temperature Precipitation Wind Pressure Humidity
    00:00 +12°C° 0 mm 1 mps 690 mmHg 36%
    01:00 +12°C° 0 mm 1 mps 690 mmHg 37%
    02:00 +11°C° 0 mm 1 mps 690 mmHg 37%
    03:00 +11°C° 0 mm 1 mps 690 mmHg 38%
    04:00 +11°C° 0 mm 1 mps 690 mmHg 38%
    05:00 +12°C° 0 mm 1 mps 690 mmHg 36%
    06:00 +13°C° 0 mm 1 mps 691 mmHg 34%
    07:00 +15°C° 0 mm 1 mps 691 mmHg 32%
    08:00 +18°C° 0 mm 1 mps 692 mmHg 27%
    09:00 +21°C° 0 mm 1 mps 692 mmHg 23%
    10:00 +23°C° 0 mm 1 mps 692 mmHg 18%
    11:00 +24°C° 0 mm 2 mps 692 mmHg 17%
    12:00 +25°C° 0 mm 2 mps 691 mmHg 16%
    13:00 +27°C° 0 mm 2 mps 691 mmHg 14%
    14:00 +26°C° 0 mm 3 mps 690 mmHg 15%
    15:00 +26°C° 0 mm 3 mps 690 mmHg 15%
    16:00 +26°C° 0 mm 3 mps 689 mmHg 15%
    17:00 +23°C° 0 mm 2 mps 689 mmHg 19%
    18:00 +20°C° 0 mm 1 mps 689 mmHg 24%
    19:00 +16°C° 0 mm 1 mps 688 mmHg 28%
    20:00 +16°C° 0 mm 1 mps 688 mmHg 27%
    21:00 +16°C° 0 mm 1 mps 688 mmHg 27%
    22:00 +15°C° 0 mm 1 mps 688 mmHg 27%
    23:00 +15°C° 0 mm 1 mps 688 mmHg 26%

    27 September, Thursday

    Time Temperature Precipitation Wind Pressure Humidity
    00:00 +15°C° 0 mm 1 mps 688 mmHg 26%
    01:00 +15°C° 0 mm 1 mps 688 mmHg 26%
    02:00 +14°C° 0 mm 1 mps 688 mmHg 26%
    03:00 +14°C° 0 mm 1 mps 687 mmHg 27%
    04:00 +13°C° 0 mm 1 mps 687 mmHg 27%
    05:00 +15°C° 0 mm 1 mps 687 mmHg 27%
    06:00 +16°C° 0 mm 1 mps 688 mmHg 26%
    07:00 +18°C° 0 mm 1 mps 688 mmHg 26%
    08:00 +21°C° 0 mm 1 mps 688 mmHg 22%
    09:00 +24°C° 0 mm 1 mps 688 mmHg 19%
    10:00 +26°C° 0 mm 1 mps 688 mmHg 15%
    11:00 +27°C° 0 mm 1 mps 687 mmHg 14%
    12:00 +29°C° 0 mm 2 mps 686 mmHg 13%
    13:00 +30°C° 0 mm 2 mps 686 mmHg 13%
    14:00 +30°C° 0 mm 2 mps 685 mmHg 13%
    15:00 +30°C° 0 mm 2 mps 684 mmHg 13%
    16:00 +29°C° 0 mm 2 mps 684 mmHg 14%
    17:00 +27°C° 0 mm 2 mps 683 mmHg 17%
    18:00 +24°C° 0 mm 2 mps 683 mmHg 19%
    19:00 +21°C° 0 mm 2 mps 682 mmHg 22%
    20:00 +20°C° 0 mm 2 mps 682 mmHg 23%
    21:00 +20°C° 0 mm 2 mps 682 mmHg 23%
    22:00 +19°C° 0 mm 2 mps 682 mmHg 23%
    23:00 +19°C° 0 mm 2 mps 681 mmHg 24%

    28 September, Friday

    Time Temperature Precipitation Wind Pressure Humidity
    00:00 +18°C° 0 mm 2 mps 681 mmHg 24%
    01:00 +18°C° 0 mm 2 mps 681 mmHg 24%
    02:00 +17°C° 0 mm 2 mps 681 mmHg 26%
    03:00 +18°C° 0 mm 1 mps 681 mmHg 28%
    04:00 +16°C° 0 mm 1 mps 680 mmHg 29%
    05:00 +18°C° 0 mm 1 mps 681 mmHg 30%
    06:00 +19°C° 0 mm 1 mps 681 mmHg 30%
    07:00 +21°C° 0 mm 1 mps 681 mmHg 30%
    08:00 +23°C° 0 mm 2 mps 682 mmHg 26%
    09:00 +25°C° 0 mm 3 mps 682 mmHg 22%
    10:00 +28°C° 0 mm 4 mps 682 mmHg 18%
    11:00 +29°C° 0 mm 4 mps 682 mmHg 17%
    12:00 +30°C° 0 mm 5 mps 681 mmHg 15%
    13:00 +32°C° 0 mm 5 mps 681 mmHg 13%
    14:00 +32°C° 0 mm 5 mps 681 mmHg 13%
    15:00 +32°C° 0 mm 4 mps 680 mmHg 13%
    16:00 +32°C° 0 mm 4 mps 680 mmHg 13%
    17:00 +28°C° 0 mm 3 mps 679 mmHg 15%
    18:00 +26°C° 0 mm 2 mps 679 mmHg 17%
    19:00 +23°C° 0 mm 1 mps 679 mmHg 19%
    20:00 +23°C° 0 mm 2 mps 679 mmHg 19%
    21:00 +23°C° 0 mm 2 mps 679 mmHg 19%
    22:00 +23°C° 0 mm 2 mps 679 mmHg 19%
    23:00 +20°C° 0 mm 2 mps 679 mmHg 22%
    Show more